sat.trackr.live / text

‹ back to catalog

COSMOS 2485 (747)

NORAD 39155 · 2013-019A

PAYLOAD ACTIVE UNKNOWN

§ Identity

Operator
Country
CIS
Launch date
2013-04-26
Launch site
PLMSC
Launch vehicle
Mass (kg)
RCS (m²)
6.42

Purposes: nav

External: N2YO · Heavens-Above · Gunter

§ Orbital elements

Epoch: 2026-05-24T21:59:25.824768Z

Period
675.73 min
Inclination
65.4077°
Eccentricity
0.0023600
Mean motion
2.13103066 rev/d
Perigee alt
19,069.6 km
Apogee alt
19,190.0 km
Semi-major
25,507.9 km
B*
0.0000e+0
RAAN
74.3848°
Arg perigee
236.0366°
Mean anomaly
123.7299°
Rev number
10,178

§ Raw data

COSMOS 2485 (747)1 39155U 13019A   26144.91627112 -.00000037  00000+0  00000+0 0  99922 39155  65.4077  74.3848 0023600 236.0366 123.7299  2.13103066101787

JSON: /api/v1/satellites/39155 · /tle

For live sub-satellite position, see the globe view (requires WebGL).

§ Visibility from observer

Set your observer location to see the next 7 days of passes ≥ 10°. The values pass through the URL so the page stays shareable.

No JS? Fill the form by hand. The geolocation button needs JavaScript.